{"data":{"norad_id":19548,"epoch":"2026-09-20T05:08:16.452384Z","epoch_age_seconds":35960,"freshness":"FRESH","line1":"1 19548U 88091B   26263.21407931 -.00000295  00000+0  00000+0 0  9994","line2":"2 19548  12.5319 340.3632 0038287 352.1344  54.9007  1.00272930126346","mean_motion":1.0027293,"eccentricity":0.0038287,"inclination_deg":12.5319,"raan_deg":340.3632,"arg_perigee_deg":352.1344,"mean_anomaly_deg":54.9007,"bstar":0,"rev_number":12634,"period_min":1436.0805054764,"perigee_km":35624.839098864,"apogee_km":35947.708859496,"semimajor_km":42164.41097918,"source":"CELESTRAK","updated_at":"2026-09-20T09:00:35.114151Z"}}